| time (UTC) | temp F | wind direction | speed MPH | gust MPH | rain 1hr in | rain 24hr in | rain mn in | humidity % | barometer mb |
| 20260502224023 | 49 | 22 | 2.0 | 7.0 | 0.00 | 0.38 | 0.34 | 49 | 1012.2 |
| 20260502223523 | 50 | 205 | 1.0 | 4.0 | 0.00 | 0.38 | 0.34 | 48 | 1012.1 |
| 20260502223037 | 50 | 250 | 1.0 | 5.0 | 0.00 | 0.38 | 0.34 | 50 | 1012.1 |
| 20260502222520 | 51 | 326 | 2.0 | 8.0 | 0.00 | 0.38 | 0.34 | 52 | 1012.1 |
| 20260502222022 | 51 | 36 | 2.0 | 8.0 | 0.00 | 0.38 | 0.34 | 45 | 1011.9 |
| 20260502221541 | 52 | 169 | 2.0 | 6.0 | 0.00 | 0.38 | 0.34 | 46 | 1012.0 |
| 20260502221020 | 52 | 323 | 3.0 | 6.0 | 0.00 | 0.38 | 0.34 | 47 | 1012.1 |
| 20260502220519 | 53 | 214 | 2.0 | 6.0 | 0.00 | 0.38 | 0.34 | 49 | 1011.8 |
| 20260502220038 | 53 | 259 | 2.0 | 15.0 | 0.00 | 0.38 | 0.34 | 48 | 1011.8 |
| 20260502215519 | 53 | 157 | 2.0 | 15.0 | 0.00 | 0.38 | 0.34 | 48 | 1011.5 |
| 20260502215019 | 53 | 283 | 5.0 | 15.0 | 0.00 | 0.38 | 0.34 | 44 | 1011.7 |
| 20260502214540 | 53 | 160 | 4.0 | 10.0 | 0.00 | 0.38 | 0.34 | 45 | 1011.6 |
| 20260502214020 | 54 | 224 | 2.0 | 4.0 | 0.00 | 0.38 | 0.34 | 46 | 1011.6 |
| 20260502213520 | 54 | 311 | 1.0 | 6.0 | 0.00 | 0.38 | 0.34 | 47 | 1011.6 |
| 20260502213034 | 54 | 304 | 2.0 | 7.0 | 0.00 | 0.38 | 0.34 | 48 | 1011.6 |
| 20260502212519 | 54 | 270 | 3.0 | 10.0 | 0.00 | 0.38 | 0.34 | 46 | 1011.5 |
| 20260502212018 | 54 | 236 | 3.0 | 10.0 | 0.00 | 0.38 | 0.34 | 44 | 1011.4 |
| 20260502211537 | 54 | 167 | 1.0 | 7.0 | 0.00 | 0.38 | 0.34 | 47 | 1011.4 |
| 20260502211019 | 54 | 245 | 2.0 | 8.0 | 0.00 | 0.38 | 0.34 | 49 | 1011.3 |
| 20260502210518 | 54 | 112 | 2.0 | 8.0 | 0.00 | 0.38 | 0.34 | 47 | 1011.4 |
| 20260502210041 | 54 | 37 | 2.0 | 9.0 | 0.00 | 0.38 | 0.34 | 46 | 1011.5 |
| 20260502205520 | 53 | 167 | 4.0 | 11.0 | 0.00 | 0.38 | 0.34 | 45 | 1011.4 |
| 20260502205016 | 53 | 143 | 4.0 | 11.0 | 0.00 | 0.38 | 0.34 | 47 | 1011.4 |
| 20260502204538 | 53 | 205 | 2.0 | 9.0 | 0.00 | 0.38 | 0.34 | 51 | 1011.4 |
| 20260502204020 | 52 | 207 | 1.0 | 8.0 | 0.00 | 0.38 | 0.34 | 51 | 1011.4 |
| 20260502203520 | 53 | 164 | 4.0 | 8.0 | 0.00 | 0.38 | 0.34 | 50 | 1011.4 |
| 20260502203038 | 53 | 169 | 2.0 | 10.0 | 0.00 | 0.38 | 0.34 | 51 | 1011.3 |
| 20260502202519 | 52 | 155 | 3.0 | 10.0 | 0.00 | 0.38 | 0.34 | 51 | 1011.3 |
| 20260502202021 | 53 | 160 | 5.0 | 10.0 | 0.00 | 0.38 | 0.34 | 51 | 1011.4 |
| 20260502201538 | 53 | 167 | 3.0 | 11.0 | 0.00 | 0.38 | 0.34 | 48 | 1011.4 |
| 20260502201020 | 54 | 185 | 2.0 | 11.0 | 0.00 | 0.38 | 0.34 | 52 | 1011.3 |
| 20260502200521 | 54 | 311 | 5.0 | 11.0 | 0.00 | 0.38 | 0.34 | 50 | 1011.6 |
| 20260502200036 | 53 | 243 | 2.0 | 7.0 | 0.00 | 0.38 | 0.34 | 53 | 1011.5 |
| 20260502195520 | 53 | 2 | 3.0 | 7.0 | 0.00 | 0.38 | 0.34 | 54 | 1011.4 |
| 20260502195016 | 54 | 148 | 4.0 | 7.0 | 0.00 | 0.38 | 0.34 | 51 | 1011.5 |
| 20260502194539 | 55 | 150 | 2.0 | 7.0 | 0.00 | 0.38 | 0.34 | 52 | 1011.4 |
| 20260502194021 | 54 | 196 | 2.0 | 7.0 | 0.00 | 0.38 | 0.34 | 54 | 1011.7 |
| 20260502193520 | 54 | 154 | 3.0 | 7.0 | 0.00 | 0.38 | 0.34 | 54 | 1011.7 |
| 20260502193036 | 55 | 165 | 2.0 | 5.0 | 0.00 | 0.38 | 0.34 | 57 | 1011.6 |
| 20260502192519 | 55 | 46 | 1.0 | 3.0 | 0.00 | 0.38 | 0.34 | 57 | 1011.7 |
| 20260502192017 | 54 | 329 | 1.0 | 6.0 | 0.00 | 0.38 | 0.34 | 60 | 1011.8 |
| 20260502191537 | 54 | 226 | 3.0 | 6.0 | 0.00 | 0.38 | 0.34 | 57 | 1011.8 |
| 20260502191022 | 53 | 245 | 1.0 | 5.0 | 0.00 | 0.38 | 0.34 | 61 | 1011.9 |
| 20260502190517 | 51 | 175 | 2.0 | 5.0 | 0.00 | 0.38 | 0.34 | 61 | 1011.9 |
| 20260502190042 | 51 | 145 | 1.0 | 3.0 | 0.00 | 0.38 | 0.34 | 64 | 1012.1 |
| 20260502185520 | 51 | 269 | 1.0 | 3.0 | 0.00 | 0.38 | 0.34 | 64 | 1012.1 |
| 20260502185017 | 51 | 285 | 1.0 | 7.0 | 0.00 | 0.38 | 0.34 | 66 | 1012.0 |
| 20260502184554 | 51 | 209 | 3.0 | 7.0 | 0.00 | 0.38 | 0.34 | 64 | 1012.1 |
| 20260502184020 | 51 | 224 | 1.0 | 5.0 | 0.00 | 0.38 | 0.34 | 64 | 1012.1 |
| 20260502183521 | 52 | 308 | 2.0 | 5.0 | 0.00 | 0.38 | 0.34 | 63 | 1012.1 |
| 20260502183032 | 51 | 279 | 1.0 | 5.0 | 0.00 | 0.38 | 0.34 | 71 | 1012.3 |
| 20260502182519 | 51 | 190 | 2.0 | 5.0 | 0.00 | 0.38 | 0.34 | 70 | 1012.4 |
| 20260502182018 | 51 | 191 | 1.0 | 7.0 | 0.00 | 0.38 | 0.34 | 70 | 1012.4 |
| 20260502181537 | 52 | 243 | 3.0 | 7.0 | 0.00 | 0.38 | 0.34 | 69 | 1012.4 |
| 20260502181021 | 51 | 146 | 2.0 | 7.0 | 0.00 | 0.38 | 0.34 | 75 | 1012.3 |
| 20260502180519 | 50 | 127 | 2.0 | 7.0 | 0.00 | 0.38 | 0.34 | 77 | 1012.5 |
| 20260502170520 | 46 | 117 | 0.0 | 1.0 | 0.02 | 0.38 | 0.34 | 87 | 1012.9 |
| 20260502164021 | 45 | 113 | 0.0 | 2.0 | 0.04 | 0.38 | 0.34 | 90 | 1013.0 |
| 20260502163517 | 45 | 263 | 0.0 | 4.0 | 0.05 | 0.38 | 0.34 | 91 | 1013.1 |
| 20260502163048 | 44 | 244 | 1.0 | 4.0 | 0.05 | 0.38 | 0.34 | 91 | 1013.2 |
| 20260502162518 | 44 | 233 | 2.0 | 4.0 | 0.05 | 0.38 | 0.34 | 92 | 1013.2 |
| 20260502162024 | 44 | 255 | 0.0 | 2.0 | 0.05 | 0.38 | 0.34 | 93 | 1013.1 |
| 20260502161538 | 44 | 200 | 0.0 | 2.0 | 0.04 | 0.37 | 0.33 | 93 | 1013.2 |
| 20260502161018 | 44 | 312 | 1.0 | 3.0 | 0.04 | 0.37 | 0.33 | 93 | 1013.2 |
| 20260502160521 | 44 | 259 | 1.0 | 3.0 | 0.03 | 0.36 | 0.32 | 93 | 1013.0 |
| 20260502152017 | 43 | 231 | 0.0 | 4.0 | 0.00 | 0.33 | 0.29 | 94 | 1013.2 |
| 20260502151537 | 43 | 0 | 1.0 | 4.0 | 0.00 | 0.33 | 0.29 | 94 | 1013.3 |
| 20260502151020 | 43 | 175 | 1.0 | 5.0 | 0.00 | 0.33 | 0.29 | 94 | 1013.3 |
| 20260502150520 | 43 | 203 | 1.0 | 5.0 | 0.00 | 0.33 | 0.29 | 94 | 1013.3 |
| 20260502130519 | 43 | 0 | 0.0 | 3.0 | 0.01 | 0.33 | 0.29 | 94 | 1013.0 |
| 20260502123522 | 43 | 169 | 1.0 | 4.0 | 0.04 | 0.33 | 0.29 | 95 | 1013.2 |
| 20260502123043 | 43 | 286 | 1.0 | 1.0 | 0.04 | 0.33 | 0.29 | 95 | 1013.1 |
| 20260502122519 | 43 | 157 | 0.0 | 1.0 | 0.04 | 0.33 | 0.29 | 95 | 1013.1 |
| 20260502122018 | 44 | 276 | 0.0 | 1.0 | 0.04 | 0.33 | 0.29 | 95 | 1013.1 |
| 20260502121537 | 43 | 0 | 0.0 | 1.0 | 0.04 | 0.33 | 0.29 | 95 | 1013.0 |
| 20260502121017 | 43 | 0 | 0.0 | 1.0 | 0.04 | 0.33 | 0.29 | 95 | 1013.0 |
| 20260502120517 | 43 | 0 | 0.0 | 1.0 | 0.04 | 0.32 | 0.28 | 95 | 1012.8 |
| 20260502115519 | 43 | 200 | 0.0 | 1.0 | 0.03 | 0.31 | 0.27 | 95 | 1012.9 |
| 20260502115021 | 43 | 184 | 0.0 | 1.0 | 0.02 | 0.30 | 0.26 | 95 | 1012.8 |
| 20260502114538 | 43 | 153 | 0.0 | 2.0 | 0.01 | 0.29 | 0.25 | 95 | 1012.9 |
| 20260502114026 | 43 | 0 | 0.0 | 2.0 | 0.01 | 0.29 | 0.25 | 95 | 1012.7 |
| 20260502113519 | 43 | 200 | 0.0 | 1.0 | 0.01 | 0.29 | 0.25 | 95 | 1012.8 |
| 20260502113041 | 43 | 200 | 0.0 | 1.0 | 0.01 | 0.29 | 0.25 | 95 | 1012.7 |
| 20260502112519 | 43 | 200 | 0.0 | 0.0 | 0.01 | 0.29 | 0.25 | 95 | 1012.6 |
| 20260502112018 | 43 | 0 | 0.0 | 0.0 | 0.01 | 0.29 | 0.25 | 95 | 1012.5 |
| 20260502111534 | 43 | 0 | 0.0 | 0.0 | 0.01 | 0.29 | 0.25 | 95 | 1012.6 |
| 20260502111017 | 43 | 0 | 0.0 | 0.0 | 0.01 | 0.29 | 0.25 | 95 | 1012.7 |
| 20260502110518 | 42 | 0 | 0.0 | 0.0 | 0.00 | 0.28 | 0.24 | 95 | 1012.7 |
| 20260502110038 | 42 | 0 | 0.0 | 0.0 | 0.00 | 0.28 | 0.24 | 95 | 1012.7 |
| 20260502105520 | 42 | 0 | 0.0 | 0.0 | 0.00 | 0.28 | 0.24 | 95 | 1012.6 |
| 20260502105018 | 42 | 0 | 0.0 | 0.0 | 0.00 | 0.28 | 0.24 | 95 | 1012.4 |
| 20260502104549 | 42 | 0 | 0.0 | 0.0 | 0.00 | 0.28 | 0.24 | 95 | 1012.5 |
| 20260502104016 | 42 | 0 | 0.0 | 1.0 | 0.00 | 0.28 | 0.24 | 95 | 1012.5 |
| 20260502103519 | 42 | 0 | 0.0 | 1.0 | 0.00 | 0.28 | 0.24 | 95 | 1012.5 |
| 20260502103037 | 42 | 0 | 0.0 | 1.0 | 0.01 | 0.28 | 0.24 | 95 | 1012.5 |
| 20260502102516 | 42 | 0 | 0.0 | 0.0 | 0.01 | 0.28 | 0.24 | 95 | 1012.5 |
| 20260502102016 | 42 | 0 | 0.0 | 0.0 | 0.01 | 0.28 | 0.24 | 95 | 1012.5 |
| 20260502101552 | 42 | 0 | 0.0 | 0.0 | 0.01 | 0.28 | 0.24 | 95 | 1012.4 |
| 20260502101019 | 42 | 0 | 0.0 | 0.0 | 0.01 | 0.28 | 0.24 | 95 | 1012.3 |
| 20260502100519 | 42 | 0 | 0.0 | 0.0 | 0.02 | 0.28 | 0.24 | 95 | 1012.2 |
| 20260502091532 | 42 | 0 | 0.0 | 0.0 | 0.02 | 0.27 | 0.23 | 95 | 1012.2 |
| 20260502091017 | 42 | 0 | 0.0 | 0.0 | 0.02 | 0.27 | 0.23 | 95 | 1012.2 |
| 20260502090522 | 42 | 0 | 0.0 | 0.0 | 0.01 | 0.26 | 0.22 | 95 | 1012.3 |
| 20260502071535 | 42 | 0 | 0.0 | 1.0 | 0.00 | 0.23 | 0.19 | 94 | 1012.5 |
| 20260502071019 | 42 | 0 | 0.0 | 1.0 | 0.01 | 0.23 | 0.19 | 94 | 1012.7 |
| 20260502070518 | 42 | 0 | 0.0 | 0.0 | 0.01 | 0.23 | 0.19 | 94 | 1012.7 |
| 20260502070046 | 42 | 0 | 0.0 | 0.0 | 0.01 | 0.23 | 0.19 | 94 | 1012.7 |
| 20260502065516 | 42 | 0 | 0.0 | 0.0 | 0.01 | 0.23 | 0.19 | 94 | 1012.6 |
| 20260502065018 | 42 | 0 | 0.0 | 1.0 | 0.01 | 0.23 | 0.19 | 94 | 1012.6 |
| 20260502064531 | 42 | 0 | 0.0 | 1.0 | 0.01 | 0.23 | 0.19 | 94 | 1012.5 |
| 20260502064018 | 42 | 0 | 0.0 | 1.0 | 0.02 | 0.23 | 0.19 | 94 | 1012.7 |
| 20260502063517 | 42 | 0 | 0.0 | 1.0 | 0.03 | 0.23 | 0.19 | 94 | 1012.6 |
| 20260502063037 | 42 | 0 | 0.0 | 1.0 | 0.04 | 0.23 | 0.19 | 94 | 1012.7 |
| 20260502062521 | 42 | 0 | 0.0 | 1.0 | 0.04 | 0.23 | 0.19 | 94 | 1012.7 |
| 20260502062022 | 42 | 85 | 0.0 | 1.0 | 0.04 | 0.23 | 0.19 | 94 | 1012.8 |
| 20260502061531 | 42 | 100 | 0.0 | 1.0 | 0.04 | 0.23 | 0.19 | 94 | 1012.8 |
| 20260502061017 | 42 | 101 | 0.0 | 1.0 | 0.03 | 0.22 | 0.18 | 94 | 1013.0 |
| 20260502060518 | 42 | 0 | 0.0 | 1.0 | 0.03 | 0.22 | 0.18 | 94 | 1012.9 |
| 20260502060038 | 42 | 0 | 0.0 | 1.0 | 0.03 | 0.22 | 0.18 | 94 | 1013.1 |
| 20260502055519 | 42 | 0 | 0.0 | 1.0 | 0.04 | 0.22 | 0.18 | 94 | 1013.0 |
| 20260502055019 | 42 | 0 | 0.0 | 1.0 | 0.05 | 0.22 | 0.18 | 94 | 1013.1 |
| 20260502054537 | 42 | 0 | 0.0 | 0.0 | 0.07 | 0.22 | 0.18 | 94 | 1013.3 |
| 20260502054017 | 42 | 0 | 0.0 | 0.0 | 0.05 | 0.20 | 0.16 | 94 | 1013.3 |
| 20260502053520 | 42 | 0 | 0.0 | 1.0 | 0.06 | 0.20 | 0.16 | 94 | 1013.3 |
| 20260502053037 | 42 | 0 | 0.0 | 1.0 | 0.06 | 0.19 | 0.15 | 94 | 1013.2 |
| 20260502052522 | 42 | 100 | 0.0 | 1.0 | 0.06 | 0.19 | 0.15 | 94 | 1013.2 |
| 20260502052018 | 42 | 0 | 0.0 | 1.0 | 0.08 | 0.19 | 0.15 | 93 | 1013.1 |
| 20260502051534 | 42 | 0 | 0.0 | 1.0 | 0.09 | 0.19 | 0.15 | 93 | 1013.2 |
| 20260502051018 | 42 | 0 | 0.0 | 1.0 | 0.11 | 0.19 | 0.15 | 93 | 1013.3 |
| 20260502050518 | 42 | 0 | 0.0 | 1.0 | 0.13 | 0.19 | 0.15 | 93 | 1013.3 |
| 20260502050039 | 43 | 0 | 0.0 | 1.0 | 0.15 | 0.19 | 0.15 | 92 | 1013.4 |
| 20260502045519 | 43 | 102 | 1.0 | 1.0 | 0.15 | 0.18 | 0.14 | 92 | 1013.4 |
| 20260502045020 | 43 | 0 | 0.0 | 2.0 | 0.15 | 0.17 | 0.13 | 91 | 1013.4 |
| 20260502044532 | 43 | 80 | 1.0 | 2.0 | 0.14 | 0.15 | 0.11 | 91 | 1013.3 |
| 20260502044018 | 43 | 342 | 0.0 | 3.0 | 0.15 | 0.15 | 0.11 | 91 | 1013.5 |
| 20260502043518 | 43 | 317 | 0.0 | 3.0 | 0.14 | 0.14 | 0.10 | 90 | 1013.5 |
| 20260502043036 | 43 | 337 | 1.0 | 3.0 | 0.13 | 0.13 | 0.09 | 91 | 1013.4 |
| 20260502042518 | 43 | 276 | 1.0 | 2.0 | 0.12 | 0.12 | 0.08 | 92 | 1013.5 |
| 20260502042017 | 44 | 319 | 1.0 | 2.0 | 0.11 | 0.11 | 0.07 | 91 | 1013.5 |
| 20260502041541 | 44 | 311 | 1.0 | 2.0 | 0.10 | 0.10 | 0.06 | 91 | 1013.4 |
| 20260502041019 | 44 | 333 | 1.0 | 2.0 | 0.08 | 0.08 | 0.04 | 90 | 1013.3 |
| 20260502040518 | 45 | 0 | 0.0 | 2.0 | 0.05 | 0.05 | 0.01 | 89 | 1013.3 |
| 20260502040042 | 45 | 311 | 1.0 | 2.0 | 0.04 | 0.04 | 0.00 | 88 | 1013.2 |
| 20260502035516 | 46 | 294 | 1.0 | 4.0 | 0.03 | 0.03 | 0.03 | 86 | 1013.3 |
| 20260502035020 | 46 | 276 | 1.0 | 4.0 | 0.02 | 0.02 | 0.02 | 80 | 1013.3 |
| 20260502034532 | 47 | 288 | 1.0 | 6.0 | 0.01 | 0.01 | 0.01 | 82 | 1013.2 |
| 20260502034019 | 48 | 249 | 0.0 | 6.0 | 0.00 | 0.00 | 0.00 | 74 | 1013.2 |
| 20260502033516 | 48 | 252 | 3.0 | 6.0 | 0.00 | 0.00 | 0.00 | 72 | 1013.1 |
| 20260502033032 | 49 | 276 | 1.0 | 4.0 | 0.00 | 0.00 | 0.00 | 74 | 1013.1 |
| 20260502032520 | 48 | 245 | 0.0 | 4.0 | 0.00 | 0.00 | 0.00 | 65 | 1013.0 |
| 20260502032021 | 48 | 247 | 0.0 | 2.0 | 0.00 | 0.00 | 0.00 | 75 | 1012.9 |
| 20260502031531 | 48 | 77 | 0.0 | 2.0 | 0.00 | 0.00 | 0.00 | 72 | 1012.8 |
| 20260502031018 | 49 | 330 | 1.0 | 1.0 | 0.00 | 0.00 | 0.00 | 72 | 1012.7 |
| 20260502030516 | 49 | 279 | 0.0 | 6.0 | 0.00 | 0.00 | 0.00 | 72 | 1012.6 |
| 20260502030039 | 49 | 275 | 2.0 | 6.0 | 0.00 | 0.00 | 0.00 | 69 | 1012.6 |
| 20260502025518 | 49 | 243 | 1.0 | 2.0 | 0.00 | 0.00 | 0.00 | 71 | 1012.6 |
| 20260502025016 | 49 | 0 | 0.0 | 1.0 | 0.00 | 0.00 | 0.00 | 69 | 1012.5 |
| 20260502024541 | 49 | 0 | 0.0 | 2.0 | 0.00 | 0.00 | 0.00 | 70 | 1012.6 |
| 20260502024016 | 49 | 0 | 0.0 | 3.0 | 0.00 | 0.00 | 0.00 | 63 | 1012.6 |
| 20260502023519 | 49 | 313 | 1.0 | 6.0 | 0.00 | 0.00 | 0.00 | 65 | 1012.6 |
| 20260502023050 | 49 | 342 | 2.0 | 6.0 | 0.00 | 0.00 | 0.00 | 63 | 1012.6 |
| 20260502022516 | 48 | 0 | 0.0 | 0.0 | 0.00 | 0.00 | 0.00 | 72 | 1012.9 |
| 20260502022019 | 48 | 0 | 0.0 | 0.0 | 0.00 | 0.00 | 0.00 | 75 | 1012.8 |
| 20260502021539 | 48 | 0 | 0.0 | 0.0 | 0.00 | 0.00 | 0.00 | 74 | 1012.7 |
| 20260502021015 | 49 | 0 | 0.0 | 0.0 | 0.00 | 0.00 | 0.00 | 72 | 1012.8 |
| 20260502020519 | 49 | 0 | 0.0 | 0.0 | 0.00 | 0.00 | 0.00 | 72 | 1012.7 |
| 20260502020037 | 49 | 0 | 0.0 | 0.0 | 0.00 | 0.00 | 0.00 | 71 | 1012.7 |
| 20260502015516 | 49 | 0 | 0.0 | 0.0 | 0.00 | 0.01 | 0.00 | 70 | 1012.8 |
| 20260502015019 | 50 | 0 | 0.0 | 0.0 | 0.00 | 0.01 | 0.00 | 68 | 1012.7 |
| 20260502014540 | 50 | 0 | 0.0 | 0.0 | 0.00 | 0.01 | 0.00 | 64 | 1012.7 |
| 20260502014017 | 50 | 0 | 0.0 | 1.0 | 0.00 | 0.01 | 0.00 | 65 | 1012.7 |
| 20260502013515 | 50 | 0 | 0.0 | 1.0 | 0.00 | 0.01 | 0.00 | 63 | 1012.7 |
| 20260502013038 | 51 | 48 | 0.0 | 1.0 | 0.00 | 0.01 | 0.00 | 61 | 1012.7 |
| 20260502012518 | 51 | 48 | 0.0 | 1.0 | 0.00 | 0.01 | 0.00 | 59 | 1012.7 |
| 20260502012023 | 51 | 0 | 0.0 | 3.0 | 0.00 | 0.01 | 0.00 | 58 | 1012.7 |
| 20260502011541 | 51 | 0 | 0.0 | 3.0 | 0.00 | 0.01 | 0.00 | 57 | 1012.8 |
| 20260502011020 | 51 | 0 | 1.0 | 3.0 | 0.00 | 0.01 | 0.00 | 56 | 1012.7 |
| 20260502010523 | 51 | 0 | 1.0 | 2.0 | 0.00 | 0.01 | 0.00 | 57 | 1012.7 |
| 20260502010033 | 51 | 167 | 0.0 | 3.0 | 0.00 | 0.01 | 0.00 | 62 | 1012.6 |
| 20260502005520 | 51 | 146 | 1.0 | 6.0 | 0.00 | 0.01 | 0.00 | 59 | 1012.6 |
| 20260502005021 | 52 | 139 | 1.0 | 6.0 | 0.00 | 0.01 | 0.00 | 57 | 1012.6 |
| 20260502004543 | 52 | 264 | 0.0 | 5.0 | 0.00 | 0.01 | 0.00 | 54 | 1012.4 |
| 20260502004022 | 52 | 123 | 0.0 | 5.0 | 0.00 | 0.01 | 0.00 | 53 | 1012.4 |
| 20260502003519 | 51 | 140 | 1.0 | 3.0 | 0.00 | 0.01 | 0.00 | 58 | 1012.3 |
| 20260502003040 | 51 | 239 | 1.0 | 3.0 | 0.00 | 0.01 | 0.00 | 60 | 1012.3 |
| 20260502002519 | 52 | 92 | 1.0 | 3.0 | 0.00 | 0.01 | 0.00 | 58 | 1012.1 |
| 20260502002019 | 52 | 257 | 1.0 | 7.0 | 0.00 | 0.01 | 0.00 | 59 | 1012.1 |
| 20260502001537 | 52 | 22 | 2.0 | 7.0 | 0.00 | 0.01 | 0.00 | 54 | 1011.9 |
| 20260502001020 | 52 | 160 | 2.0 | 7.0 | 0.00 | 0.01 | 0.00 | 49 | 1011.9 |
| 20260502000519 | 52 | 30 | 1.0 | 3.0 | 0.00 | 0.01 | 0.00 | 52 | 1012.0 |
| 20260502000037 | 52 | 78 | 1.0 | 3.0 | 0.00 | 0.01 | 0.00 | 55 | 1011.8 |
| 20260501235519 | 53 | 224 | 1.0 | 4.0 | 0.00 | 0.01 | 0.00 | 60 | 1011.8 |
| 20260501235020 | 54 | 218 | 0.0 | 7.0 | 0.00 | 0.01 | 0.00 | 49 | 1011.7 |
| 20260501234532 | 54 | 157 | 2.0 | 8.0 | 0.00 | 0.01 | 0.00 | 45 | 1011.7 |
| 20260501234018 | 54 | 165 | 2.0 | 8.0 | 0.00 | 0.01 | 0.00 | 44 | 1011.6 |
| 20260501233520 | 54 | 191 | 1.0 | 7.0 | 0.00 | 0.01 | 0.00 | 45 | 1011.6 |
| 20260501233039 | 54 | 233 | 2.0 | 7.0 | 0.00 | 0.01 | 0.00 | 45 | 1011.6 |
| 20260501232522 | 54 | 193 | 2.0 | 8.0 | 0.00 | 0.01 | 0.00 | 44 | 1011.6 |
| 20260501232020 | 54 | 202 | 3.0 | 8.0 | 0.00 | 0.01 | 0.00 | 43 | 1011.6 |
| 20260501231538 | 54 | 193 | 1.0 | 5.0 | 0.00 | 0.01 | 0.00 | 46 | 1011.5 |
| 20260501231020 | 54 | 195 | 1.0 | 5.0 | 0.00 | 0.01 | 0.00 | 46 | 1011.3 |
| 20260501230520 | 54 | 150 | 2.0 | 5.0 | 0.00 | 0.01 | 0.00 | 46 | 1011.4 |
| 20260501230042 | 54 | 148 | 0.0 | 6.0 | 0.00 | 0.01 | 0.00 | 46 | 1011.1 |
| 20260501225525 | 54 | 269 | 1.0 | 6.0 | 0.00 | 0.04 | 0.00 | 47 | 1011.2 |
| 20260501225023 | 55 | 127 | 2.0 | 6.0 | 0.00 | 0.04 | 0.00 | 43 | 1011.2 |
| 20260501224544 | 55 | 188 | 2.0 | 6.0 | 0.00 | 0.04 | 0.00 | 44 | 1011.0 |